Rechercher aéroport 
image banner adimage banner adimage banner ad
image banner ad

O21 - Hoopa

Situé à Hoopa, United States

ICAO - O21, IATA -

Données fournies par Airmate  

Information générale

Coordonnées: N41°2'29" W123°40'4"
Élévation : 356 feet MSL.
Variation magnétique : 17° East
Voir autres Aéroports à California

Données opérationnelles

Special qualification required
Heure actuelle UTC:
Heure actuelle locale:
Météo à : KACV - Arcata ( 38 km )
METAR: KACV 292153Z AUTO 30005KT 10SM CLR 17/12 A2996 RMK AO2 SLP148 T01720122
TAF: KACV 291731Z 2918/3018 VRB03KT 6SM BR SCT002 TEMPO 2918/2919 1/2SM FG VV002 FM292000 27005KT P6SM SKC FM300200 23003KT 3SM BR VCFG BKN003 FM300500 18003KT 1/2SM FG OVC003
Voir NOTAMs / SUP AIP / TFR affectant cet aéroport [VIEW]
Fréquences de communication: [VIEW]

Pistes:

Identifiant RWYQFULongueur (ft)Largeur (ft)SurfaceLDA (ft)
14232550ASPH
32232550ASPH

Coordonnées de l'aéroport

Adresse: Hoopa United States

Vue satellite de O21